Year,Month,Day,Hour,Minute,Value (Times are PST for insolation in W/m^2)
2012,10,03,00,00,0.00
2012,10,03,00,01,0.00
2012,10,03,00,02,0.00
2012,10,03,00,03,0.00
2012,10,03,00,04,0.00
2012,10,03,00,05,0.00
2012,10,03,00,06,0.00
2012,10,03,00,07,0.00
2012,10,03,00,08,0.00
2012,10,03,00,09,0.00
2012,10,03,00,10,0.00
2012,10,03,00,11,0.00
2012,10,03,00,12,0.00
2012,10,03,00,13,0.00
2012,10,03,00,14,0.00
2012,10,03,00,15,0.00
2012,10,03,00,16,0.00
2012,10,03,00,17,0.00
2012,10,03,00,18,0.00
2012,10,03,00,19,0.00
2012,10,03,00,20,0.00
2012,10,03,00,21,0.00
2012,10,03,00,22,0.00
2012,10,03,00,23,0.00
2012,10,03,00,24,0.00
2012,10,03,00,25,0.00
2012,10,03,00,26,0.00
2012,10,03,00,27,0.00
2012,10,03,00,28,0.00
2012,10,03,00,29,0.00
2012,10,03,00,30,0.00
2012,10,03,00,31,0.00
2012,10,03,00,32,0.00
2012,10,03,00,33,0.00
2012,10,03,00,34,0.00
2012,10,03,00,35,0.00
2012,10,03,00,36,0.00
2012,10,03,00,37,0.00
2012,10,03,00,38,0.00
2012,10,03,00,39,0.00
2012,10,03,00,40,0.00
2012,10,03,00,41,0.00
2012,10,03,00,42,0.00
2012,10,03,00,43,0.00
2012,10,03,00,44,0.00
2012,10,03,00,45,0.00
2012,10,03,00,46,0.00
2012,10,03,00,47,0.00
2012,10,03,00,48,0.00
2012,10,03,00,49,0.00
2012,10,03,00,50,0.00
2012,10,03,00,51,0.00
2012,10,03,00,52,0.00
2012,10,03,00,53,0.00
2012,10,03,00,54,0.00
2012,10,03,00,55,0.00
2012,10,03,00,56,0.00
2012,10,03,00,57,0.00
2012,10,03,00,58,0.00
2012,10,03,00,59,0.00
2012,10,03,01,00,0.00
2012,10,03,01,01,0.00
2012,10,03,01,02,0.00
2012,10,03,01,03,0.00
2012,10,03,01,04,0.00
2012,10,03,01,05,0.00
2012,10,03,01,06,0.00
2012,10,03,01,07,0.00
2012,10,03,01,08,0.00
2012,10,03,01,09,0.00
2012,10,03,01,10,0.00
2012,10,03,01,11,0.00
2012,10,03,01,12,0.00
2012,10,03,01,13,0.00
2012,10,03,01,14,0.00
2012,10,03,01,15,0.00
2012,10,03,01,16,0.00
2012,10,03,01,17,0.00
2012,10,03,01,18,0.00
2012,10,03,01,19,0.00
2012,10,03,01,20,0.00
2012,10,03,01,21,0.00
2012,10,03,01,22,0.00
2012,10,03,01,23,0.00
2012,10,03,01,24,0.00
2012,10,03,01,25,0.00
2012,10,03,01,26,0.00
2012,10,03,01,27,0.00
2012,10,03,01,28,0.00
2012,10,03,01,29,0.00
2012,10,03,01,30,0.00
2012,10,03,01,31,0.00
2012,10,03,01,32,0.00
2012,10,03,01,33,0.00
2012,10,03,01,34,0.00
2012,10,03,01,35,0.00
2012,10,03,01,36,0.00
2012,10,03,01,37,0.00
2012,10,03,01,38,0.00
2012,10,03,01,39,0.00
2012,10,03,01,40,0.00
2012,10,03,01,41,0.00
2012,10,03,01,42,0.00
2012,10,03,01,43,0.00
2012,10,03,01,44,0.00
2012,10,03,01,45,0.00
2012,10,03,01,46,0.00
2012,10,03,01,47,0.00
2012,10,03,01,48,0.00
2012,10,03,01,49,0.00
2012,10,03,01,50,0.00
2012,10,03,01,51,0.00
2012,10,03,01,52,0.00
2012,10,03,01,53,0.00
2012,10,03,01,54,0.00
2012,10,03,01,55,0.00
2012,10,03,01,56,0.00
2012,10,03,01,57,0.00
2012,10,03,01,58,0.00
2012,10,03,01,59,0.00
2012,10,03,02,00,0.00
2012,10,03,02,01,0.00
2012,10,03,02,02,0.00
2012,10,03,02,03,0.00
2012,10,03,02,04,0.00
2012,10,03,02,05,0.00
2012,10,03,02,06,0.00
2012,10,03,02,07,0.00
2012,10,03,02,08,0.00
2012,10,03,02,09,0.00
2012,10,03,02,10,0.00
2012,10,03,02,11,0.00
2012,10,03,02,12,0.00
2012,10,03,02,13,0.00
2012,10,03,02,14,0.00
2012,10,03,02,15,0.00
2012,10,03,02,16,0.00
2012,10,03,02,17,0.00
2012,10,03,02,18,0.00
2012,10,03,02,19,0.00
2012,10,03,02,20,0.00
2012,10,03,02,21,0.00
2012,10,03,02,22,0.00
2012,10,03,02,23,0.00
2012,10,03,02,24,0.00
2012,10,03,02,25,0.00
2012,10,03,02,26,0.00
2012,10,03,02,27,0.00
2012,10,03,02,28,0.00
2012,10,03,02,29,0.00
2012,10,03,02,30,0.00
2012,10,03,02,31,0.00
2012,10,03,02,32,0.00
2012,10,03,02,33,0.00
2012,10,03,02,34,0.00
2012,10,03,02,35,0.00
2012,10,03,02,36,0.00
2012,10,03,02,37,0.00
2012,10,03,02,38,0.00
2012,10,03,02,39,0.00
2012,10,03,02,40,0.00
2012,10,03,02,41,0.00
2012,10,03,02,42,0.00
2012,10,03,02,43,0.00
2012,10,03,02,44,0.00
2012,10,03,02,45,0.00
2012,10,03,02,46,0.00
2012,10,03,02,47,0.00
2012,10,03,02,48,0.00
2012,10,03,02,49,0.00
2012,10,03,02,50,0.00
2012,10,03,02,51,0.00
2012,10,03,02,52,0.00
2012,10,03,02,53,0.00
2012,10,03,02,54,0.00
2012,10,03,02,55,0.00
2012,10,03,02,56,0.00
2012,10,03,02,57,0.00
2012,10,03,02,58,0.00
2012,10,03,02,59,0.00
2012,10,03,03,00,0.00
2012,10,03,03,01,0.00
2012,10,03,03,02,0.00
2012,10,03,03,03,0.00
2012,10,03,03,04,0.00
2012,10,03,03,05,0.00
2012,10,03,03,06,0.00
2012,10,03,03,07,0.00
2012,10,03,03,08,0.00
2012,10,03,03,09,0.00
2012,10,03,03,10,0.00
2012,10,03,03,11,0.00
2012,10,03,03,12,0.00
2012,10,03,03,13,0.00
2012,10,03,03,14,0.00
2012,10,03,03,15,0.00
2012,10,03,03,16,0.00
2012,10,03,03,17,0.00
2012,10,03,03,18,0.00
2012,10,03,03,19,0.00
2012,10,03,03,20,0.00
2012,10,03,03,21,0.00
2012,10,03,03,22,0.00
2012,10,03,03,23,0.00
2012,10,03,03,24,0.00
2012,10,03,03,25,0.00
2012,10,03,03,26,0.00
2012,10,03,03,27,0.00
2012,10,03,03,28,0.00
2012,10,03,03,29,0.00
2012,10,03,03,30,0.00
2012,10,03,03,31,0.00
2012,10,03,03,32,0.00
2012,10,03,03,33,0.00
2012,10,03,03,34,0.00
2012,10,03,03,35,0.00
2012,10,03,03,36,0.00
2012,10,03,03,37,0.00
2012,10,03,03,38,0.00
2012,10,03,03,39,0.00
2012,10,03,03,40,0.00
2012,10,03,03,41,0.00
2012,10,03,03,42,0.00
2012,10,03,03,43,0.00
2012,10,03,03,44,0.00
2012,10,03,03,45,0.00
2012,10,03,03,46,0.00
2012,10,03,03,47,0.00
2012,10,03,03,48,0.00
2012,10,03,03,49,0.00
2012,10,03,03,50,0.00
2012,10,03,03,51,0.00
2012,10,03,03,52,0.00
2012,10,03,03,53,0.00
2012,10,03,03,54,0.00
2012,10,03,03,55,0.00
2012,10,03,03,56,0.00
2012,10,03,03,57,0.00
2012,10,03,03,58,0.00
2012,10,03,03,59,0.00
2012,10,03,04,00,0.00
2012,10,03,04,01,0.00
2012,10,03,04,02,0.00
2012,10,03,04,03,0.00
2012,10,03,04,04,0.00
2012,10,03,04,05,0.00
2012,10,03,04,06,0.00
2012,10,03,04,07,0.00
2012,10,03,04,08,0.00
2012,10,03,04,09,0.00
2012,10,03,04,10,0.00
2012,10,03,04,11,0.00
2012,10,03,04,12,0.00
2012,10,03,04,13,0.00
2012,10,03,04,14,0.00
2012,10,03,04,15,0.00
2012,10,03,04,16,0.00
2012,10,03,04,17,0.00
2012,10,03,04,18,0.00
2012,10,03,04,19,0.00
2012,10,03,04,20,0.00
2012,10,03,04,21,0.00
2012,10,03,04,22,0.00
2012,10,03,04,23,0.00
2012,10,03,04,24,0.00
2012,10,03,04,25,0.00
2012,10,03,04,26,0.00
2012,10,03,04,27,0.00
2012,10,03,04,28,0.00
2012,10,03,04,29,0.00
2012,10,03,04,30,0.00
2012,10,03,04,31,0.00
2012,10,03,04,32,0.00
2012,10,03,04,33,0.00
2012,10,03,04,34,0.00
2012,10,03,04,35,0.00
2012,10,03,04,36,0.00
2012,10,03,04,37,0.00
2012,10,03,04,38,0.00
2012,10,03,04,39,0.00
2012,10,03,04,40,0.00
2012,10,03,04,41,0.00
2012,10,03,04,42,0.00
2012,10,03,04,43,0.00
2012,10,03,04,44,0.00
2012,10,03,04,45,0.00
2012,10,03,04,46,0.00
2012,10,03,04,47,0.00
2012,10,03,04,48,0.00
2012,10,03,04,49,0.00
2012,10,03,04,50,0.00
2012,10,03,04,51,0.00
2012,10,03,04,52,0.00
2012,10,03,04,53,0.00
2012,10,03,04,54,0.00
2012,10,03,04,55,0.00
2012,10,03,04,56,0.00
2012,10,03,04,57,0.00
2012,10,03,04,58,0.00
2012,10,03,04,59,0.00
2012,10,03,05,00,0.00
2012,10,03,05,01,0.00
2012,10,03,05,02,0.00
2012,10,03,05,03,0.00
2012,10,03,05,04,0.00
2012,10,03,05,05,0.00
2012,10,03,05,06,0.00
2012,10,03,05,07,0.00
2012,10,03,05,08,0.00
2012,10,03,05,09,0.00
2012,10,03,05,10,0.00
2012,10,03,05,11,0.00
2012,10,03,05,12,0.00
2012,10,03,05,13,0.00
2012,10,03,05,14,0.00
2012,10,03,05,15,0.00
2012,10,03,05,16,0.00
2012,10,03,05,17,0.00
2012,10,03,05,18,0.00
2012,10,03,05,19,0.00
2012,10,03,05,20,0.00
2012,10,03,05,21,0.00
2012,10,03,05,22,0.00
2012,10,03,05,23,0.00
2012,10,03,05,24,0.00
2012,10,03,05,25,0.00
2012,10,03,05,26,0.00
2012,10,03,05,27,0.00
2012,10,03,05,28,0.00
2012,10,03,05,29,0.00
2012,10,03,05,30,0.00
2012,10,03,05,31,0.00
2012,10,03,05,32,0.00
2012,10,03,05,33,0.00
2012,10,03,05,34,0.00
2012,10,03,05,35,0.00
2012,10,03,05,36,0.00
2012,10,03,05,37,0.00
2012,10,03,05,38,0.00
2012,10,03,05,39,0.00
2012,10,03,05,40,0.00
2012,10,03,05,41,0.00
2012,10,03,05,42,0.00
2012,10,03,05,43,0.00
2012,10,03,05,44,0.00
2012,10,03,05,45,0.00
2012,10,03,05,46,0.00
2012,10,03,05,47,0.00
2012,10,03,05,48,0.00
2012,10,03,05,49,0.00
2012,10,03,05,50,0.00
2012,10,03,05,51,0.00
2012,10,03,05,52,0.00
2012,10,03,05,53,0.00
2012,10,03,05,54,0.00
2012,10,03,05,55,0.00
2012,10,03,05,56,0.00
2012,10,03,05,57,0.00
2012,10,03,05,58,0.00
2012,10,03,05,59,0.00
2012,10,03,06,00,0.00
2012,10,03,06,01,0.00
2012,10,03,06,02,0.00
2012,10,03,06,03,0.00
2012,10,03,06,04,0.00
2012,10,03,06,05,0.00
2012,10,03,06,06,0.00
2012,10,03,06,07,0.00
2012,10,03,06,08,0.00
2012,10,03,06,09,0.00
2012,10,03,06,10,0.00
2012,10,03,06,11,0.00
2012,10,03,06,12,0.00
2012,10,03,06,13,0.00
2012,10,03,06,14,0.00
2012,10,03,06,15,0.00
2012,10,03,06,16,0.00
2012,10,03,06,17,0.00
2012,10,03,06,18,0.00
2012,10,03,06,19,0.00
2012,10,03,06,20,0.00
2012,10,03,06,21,0.00
2012,10,03,06,22,0.00
2012,10,03,06,23,0.00
2012,10,03,06,24,0.00
2012,10,03,06,25,0.00
2012,10,03,06,26,0.00
2012,10,03,06,27,0.00
2012,10,03,06,28,0.00
2012,10,03,06,29,0.00
2012,10,03,06,30,0.00
2012,10,03,06,31,0.00
2012,10,03,06,32,0.00
2012,10,03,06,33,0.00
2012,10,03,06,34,0.00
2012,10,03,06,35,0.00
2012,10,03,06,36,0.00
2012,10,03,06,37,0.00
2012,10,03,06,38,0.00
2012,10,03,06,39,0.00
2012,10,03,06,40,0.00
2012,10,03,06,41,0.00
2012,10,03,06,42,0.00
2012,10,03,06,43,0.00
2012,10,03,06,44,0.00
2012,10,03,06,45,0.00
2012,10,03,06,46,0.00
2012,10,03,06,47,0.00
2012,10,03,06,48,0.00
2012,10,03,06,49,0.00
2012,10,03,06,50,0.00
2012,10,03,06,51,0.00
2012,10,03,06,52,0.00
2012,10,03,06,53,0.00
2012,10,03,06,54,0.00
2012,10,03,06,55,0.00
2012,10,03,06,56,0.00
2012,10,03,06,57,0.00
2012,10,03,06,58,0.00
2012,10,03,06,59,0.00
2012,10,03,07,00,0.00
2012,10,03,07,01,0.00
2012,10,03,07,02,0.00
2012,10,03,07,03,0.00
2012,10,03,07,04,0.00
2012,10,03,07,05,0.00
2012,10,03,07,06,0.00
2012,10,03,07,07,0.00
2012,10,03,07,08,0.00
2012,10,03,07,09,0.00
2012,10,03,07,10,0.00
2012,10,03,07,11,0.00
2012,10,03,07,12,0.00
2012,10,03,07,13,0.00
2012,10,03,07,14,0.00
2012,10,03,07,15,0.00
2012,10,03,07,16,3.50
2012,10,03,07,17,5.00
2012,10,03,07,18,5.00
2012,10,03,07,19,5.00
2012,10,03,07,20,5.90
2012,10,03,07,21,7.00
2012,10,03,07,22,7.00
2012,10,03,07,23,8.70
2012,10,03,07,24,9.30
2012,10,03,07,25,11.00
2012,10,03,07,26,11.40
2012,10,03,07,27,12.00
2012,10,03,07,28,13.50
2012,10,03,07,29,15.70
2012,10,03,07,30,16.30
2012,10,03,07,31,18.00
2012,10,03,07,32,18.50
2012,10,03,07,33,20.20
2012,10,03,07,34,21.00
2012,10,03,07,35,22.80
2012,10,03,07,36,25.20
2012,10,03,07,37,26.00
2012,10,03,07,38,26.90
2012,10,03,07,39,29.20
2012,10,03,07,40,30.00
2012,10,03,07,41,31.90
2012,10,03,07,42,33.40
2012,10,03,07,43,35.60
2012,10,03,07,44,37.00
2012,10,03,07,45,38.80
2012,10,03,07,46,40.00
2012,10,03,07,47,40.30
2012,10,03,07,48,46.20
2012,10,03,07,49,47.70
2012,10,03,07,50,50.00
2012,10,03,07,51,52.30
2012,10,03,07,52,53.80
2012,10,03,07,53,56.00
2012,10,03,07,54,58.80
2012,10,03,07,55,62.40
2012,10,03,07,56,64.10
2012,10,03,07,57,66.30
2012,10,03,07,58,68.60
2012,10,03,07,59,72.20
2012,10,03,08,00,74.00
2012,10,03,08,01,76.00
2012,10,03,08,02,80.10
2012,10,03,08,03,81.00
2012,10,03,08,04,85.20
2012,10,03,08,05,88.20
2012,10,03,08,06,90.90
2012,10,03,08,07,93.80
2012,10,03,08,08,96.70
2012,10,03,08,09,99.50
2012,10,03,08,10,103.40
2012,10,03,08,11,105.60
2012,10,03,08,12,109.60
2012,10,03,08,13,112.30
2012,10,03,08,14,115.20
2012,10,03,08,15,118.80
2012,10,03,08,16,120.80
2012,10,03,08,17,125.40
2012,10,03,08,18,128.70
2012,10,03,08,19,131.90
2012,10,03,08,20,135.80
2012,10,03,08,21,138.40
2012,10,03,08,22,140.90
2012,10,03,08,23,144.00
2012,10,03,08,24,146.40
2012,10,03,08,25,152.00
2012,10,03,08,26,154.30
2012,10,03,08,27,157.30
2012,10,03,08,28,158.40
2012,10,03,08,29,162.00
2012,10,03,08,30,162.00
2012,10,03,08,31,165.50
2012,10,03,08,32,170.40
2012,10,03,08,33,164.30
2012,10,03,08,34,171.10
2012,10,03,08,35,175.50
2012,10,03,08,36,173.30
2012,10,03,08,37,172.00
2012,10,03,08,38,168.60
2012,10,03,08,39,178.30
2012,10,03,08,40,178.00
2012,10,03,08,41,181.50
2012,10,03,08,42,191.10
2012,10,03,08,43,195.20
2012,10,03,08,44,199.00
2012,10,03,08,45,183.70
2012,10,03,08,46,178.00
2012,10,03,08,47,179.80
2012,10,03,08,48,187.80
2012,10,03,08,49,196.60
2012,10,03,08,50,200.00
2012,10,03,08,51,209.40
2012,10,03,08,52,211.40
2012,10,03,08,53,203.20
2012,10,03,08,54,207.00
2012,10,03,08,55,208.20
2012,10,03,08,56,217.20
2012,10,03,08,57,220.00
2012,10,03,08,58,220.80
2012,10,03,08,59,225.00
2012,10,03,09,00,228.10
2012,10,03,09,01,232.00
2012,10,03,09,02,235.20
2012,10,03,09,03,236.90
2012,10,03,09,04,240.40
2012,10,03,09,05,246.50
2012,10,03,09,06,243.50
2012,10,03,09,07,243.00
2012,10,03,09,08,245.40
2012,10,03,09,09,246.00
2012,10,03,09,10,247.00
2012,10,03,09,11,251.00
2012,10,03,09,12,253.10
2012,10,03,09,13,255.00
2012,10,03,09,14,255.00
2012,10,03,09,15,275.10
2012,10,03,09,16,279.50
2012,10,03,09,17,282.40
2012,10,03,09,18,286.00
2012,10,03,09,19,287.70
2012,10,03,09,20,291.40
2012,10,03,09,21,292.30
2012,10,03,09,22,296.20
2012,10,03,09,23,299.80
2012,10,03,09,24,301.50
2012,10,03,09,25,303.40
2012,10,03,09,26,305.70
2012,10,03,09,27,309.00
2012,10,03,09,28,310.00
2012,10,03,09,29,313.80
2012,10,03,09,30,316.60
2012,10,03,09,31,319.40
2012,10,03,09,32,318.30
2012,10,03,09,33,323.60
2012,10,03,09,34,327.00
2012,10,03,09,35,327.90
2012,10,03,09,36,330.70
2012,10,03,09,37,329.90
2012,10,03,09,38,317.70
2012,10,03,09,39,329.20
2012,10,03,09,40,339.50
2012,10,03,09,41,338.20
2012,10,03,09,42,342.20
2012,10,03,09,43,337.80
2012,10,03,09,44,334.20
2012,10,03,09,45,334.80
2012,10,03,09,46,340.50
2012,10,03,09,47,346.40
2012,10,03,09,48,351.00
2012,10,03,09,49,358.20
2012,10,03,09,50,360.00
2012,10,03,09,51,359.80
2012,10,03,09,52,359.40
2012,10,03,09,53,361.00
2012,10,03,09,54,363.30
2012,10,03,09,55,364.00
2012,10,03,09,56,368.50
2012,10,03,09,57,369.00
2012,10,03,09,58,370.60
2012,10,03,09,59,374.60
2012,10,03,10,00,382.20
2012,10,03,10,01,386.60
2012,10,03,10,02,388.10
2012,10,03,10,03,390.50
2012,10,03,10,04,392.00
2012,10,03,10,05,392.00
2012,10,03,10,06,393.40
2012,10,03,10,07,398.00
2012,10,03,10,08,401.30
2012,10,03,10,09,403.30
2012,10,03,10,10,404.80
2012,10,03,10,11,406.00
2012,10,03,10,12,408.80
2012,10,03,10,13,410.90
2012,10,03,10,14,413.30
2012,10,03,10,15,415.50
2012,10,03,10,16,417.50
2012,10,03,10,17,420.40
2012,10,03,10,18,422.00
2012,10,03,10,19,424.70
2012,10,03,10,20,427.30
2012,10,03,10,21,429.60
2012,10,03,10,22,431.50
2012,10,03,10,23,433.20
2012,10,03,10,24,434.00
2012,10,03,10,25,437.60
2012,10,03,10,26,441.00
2012,10,03,10,27,441.60
2012,10,03,10,28,444.50
2012,10,03,10,29,447.30
2012,10,03,10,30,449.50
2012,10,03,10,31,452.00
2012,10,03,10,32,454.60
2012,10,03,10,33,457.00
2012,10,03,10,34,457.00
2012,10,03,10,35,460.20
2012,10,03,10,36,465.20
2012,10,03,10,37,467.90
2012,10,03,10,38,469.00
2012,10,03,10,39,470.60
2012,10,03,10,40,473.00
2012,10,03,10,41,473.00
2012,10,03,10,42,477.00
2012,10,03,10,43,480.20
2012,10,03,10,44,483.50
2012,10,03,10,45,485.80
2012,10,03,10,46,488.60
2012,10,03,10,47,490.00
2012,10,03,10,48,491.70
2012,10,03,10,49,496.00
2012,10,03,10,50,496.00
2012,10,03,10,51,497.20
2012,10,03,10,52,500.10
2012,10,03,10,53,501.00
2012,10,03,10,54,497.60
2012,10,03,10,55,498.60
2012,10,03,10,56,508.00
2012,10,03,10,57,500.40
2012,10,03,10,58,459.60
2012,10,03,10,59,452.20
2012,10,03,11,00,444.50
2012,10,03,11,01,465.00
2012,10,03,11,02,477.40
2012,10,03,11,03,498.80
2012,10,03,11,04,502.20
2012,10,03,11,05,501.50
2012,10,03,11,06,505.40
2012,10,03,11,07,503.80
2012,10,03,11,08,504.00
2012,10,03,11,09,505.10
2012,10,03,11,10,504.00
2012,10,03,11,11,496.50
2012,10,03,11,12,505.50
2012,10,03,11,13,513.80
2012,10,03,11,14,518.80
2012,10,03,11,15,519.50
2012,10,03,11,16,520.20
2012,10,03,11,17,522.00
2012,10,03,11,18,522.70
2012,10,03,11,19,529.00
2012,10,03,11,20,529.80
2012,10,03,11,21,532.60
2012,10,03,11,22,534.00
2012,10,03,11,23,533.20
2012,10,03,11,24,533.70
2012,10,03,11,25,540.80
2012,10,03,11,26,543.70
2012,10,03,11,27,545.00
2012,10,03,11,28,546.30
2012,10,03,11,29,547.90
2012,10,03,11,30,550.00
2012,10,03,11,31,551.20
2012,10,03,11,32,554.00
2012,10,03,11,33,554.00
2012,10,03,11,34,554.70
2012,10,03,11,35,556.70
2012,10,03,11,36,559.00
2012,10,03,11,37,559.60
2012,10,03,11,38,561.00
2012,10,03,11,39,562.20
2012,10,03,11,40,563.80
2012,10,03,11,41,565.80
2012,10,03,11,42,566.00
2012,10,03,11,43,566.60
2012,10,03,11,44,568.90
2012,10,03,11,45,570.60
2012,10,03,11,46,571.00
2012,10,03,11,47,571.10
2012,10,03,11,48,573.40
2012,10,03,11,49,575.70
2012,10,03,11,50,577.00
2012,10,03,11,51,577.00
2012,10,03,11,52,577.80
2012,10,03,11,53,578.20
2012,10,03,11,54,580.40
2012,10,03,11,55,582.00
2012,10,03,11,56,582.90
2012,10,03,11,57,584.70
2012,10,03,11,58,585.00
2012,10,03,11,59,585.10
2012,10,03,12,00,587.00
2012,10,03,12,01,587.00
2012,10,03,12,02,588.10
2012,10,03,12,03,589.00
2012,10,03,12,04,590.60
2012,10,03,12,05,591.00
2012,10,03,12,06,591.20
2012,10,03,12,07,592.80
2012,10,03,12,08,592.90
2012,10,03,12,09,593.40
2012,10,03,12,10,595.60
2012,10,03,12,11,596.30
2012,10,03,12,12,598.00
2012,10,03,12,13,598.00
2012,10,03,12,14,598.00
2012,10,03,12,15,598.00
2012,10,03,12,16,600.50
2012,10,03,12,17,601.30
2012,10,03,12,18,602.40
2012,10,03,12,19,601.90
2012,10,03,12,20,603.00
2012,10,03,12,21,605.20
2012,10,03,12,22,606.00
2012,10,03,12,23,606.00
2012,10,03,12,24,606.60
2012,10,03,12,25,608.90
2012,10,03,12,26,610.00
2012,10,03,12,27,612.20
2012,10,03,12,28,612.10
2012,10,03,12,29,613.00
2012,10,03,12,30,613.00
2012,10,03,12,31,603.50
2012,10,03,12,32,594.00
2012,10,03,12,33,595.50
2012,10,03,12,34,594.20
2012,10,03,12,35,597.80
2012,10,03,12,36,612.40
2012,10,03,12,37,614.00
2012,10,03,12,38,613.70
2012,10,03,12,39,614.60
2012,10,03,12,40,615.00
2012,10,03,12,41,615.00
2012,10,03,12,42,615.00
2012,10,03,12,43,615.00
2012,10,03,12,44,615.00
2012,10,03,12,45,615.00
2012,10,03,12,46,616.80
2012,10,03,12,47,615.00
2012,10,03,12,48,615.80
2012,10,03,12,49,617.00
2012,10,03,12,50,617.00
2012,10,03,12,51,617.00
2012,10,03,12,52,617.30
2012,10,03,12,53,619.00
2012,10,03,12,54,618.10
2012,10,03,12,55,618.20
2012,10,03,12,56,619.00
2012,10,03,12,57,619.00
2012,10,03,12,58,617.20
2012,10,03,12,59,619.00
2012,10,03,13,00,618.10
2012,10,03,13,01,618.20
2012,10,03,13,02,619.00
2012,10,03,13,03,619.00
2012,10,03,13,04,619.00
2012,10,03,13,05,619.00
2012,10,03,13,06,619.00
2012,10,03,13,07,620.20
2012,10,03,13,08,619.50
2012,10,03,13,09,619.10
2012,10,03,13,10,621.00
2012,10,03,13,11,620.30
2012,10,03,13,12,619.90
2012,10,03,13,13,619.80
2012,10,03,13,14,619.00
2012,10,03,13,15,619.00
2012,10,03,13,16,619.00
2012,10,03,13,17,619.00
2012,10,03,13,18,619.00
2012,10,03,13,19,619.00
2012,10,03,13,20,617.40
2012,10,03,13,21,618.70
2012,10,03,13,22,617.50
2012,10,03,13,23,619.00
2012,10,03,13,24,619.00
2012,10,03,13,25,617.70
2012,10,03,13,26,618.60
2012,10,03,13,27,616.90
2012,10,03,13,28,615.50
2012,10,03,13,29,616.20
2012,10,03,13,30,616.10
2012,10,03,13,31,615.60
2012,10,03,13,32,616.70
2012,10,03,13,33,615.00
2012,10,03,13,34,615.00
2012,10,03,13,35,614.20
2012,10,03,13,36,614.10
2012,10,03,13,37,613.60
2012,10,03,13,38,613.00
2012,10,03,13,39,613.00
2012,10,03,13,40,613.00
2012,10,03,13,41,613.00
2012,10,03,13,42,613.00
2012,10,03,13,43,612.20
2012,10,03,13,44,612.00
2012,10,03,13,45,610.00
2012,10,03,13,46,609.30
2012,10,03,13,47,608.00
2012,10,03,13,48,608.00
2012,10,03,13,49,609.50
2012,10,03,13,50,608.20
2012,10,03,13,51,606.00
2012,10,03,13,52,606.00
2012,10,03,13,53,606.00
2012,10,03,13,54,605.40
2012,10,03,13,55,605.00
2012,10,03,13,56,604.80
2012,10,03,13,57,603.50
2012,10,03,13,58,604.30
2012,10,03,13,59,603.00
2012,10,03,14,00,600.50
2012,10,03,14,01,600.50
2012,10,03,14,02,600.80
2012,10,03,14,03,599.00
2012,10,03,14,04,598.60
2012,10,03,14,05,598.00
2012,10,03,14,06,596.70
2012,10,03,14,07,594.40
2012,10,03,14,08,593.80
2012,10,03,14,09,592.00
2012,10,03,14,10,592.00
2012,10,03,14,11,591.50
2012,10,03,14,12,589.60
2012,10,03,14,13,589.00
2012,10,03,14,14,589.00
2012,10,03,14,15,588.50
2012,10,03,14,16,587.00
2012,10,03,14,17,587.00
2012,10,03,14,18,585.60
2012,10,03,14,19,584.20
2012,10,03,14,20,583.80
2012,10,03,14,21,582.00
2012,10,03,14,22,581.10
2012,10,03,14,23,580.00
2012,10,03,14,24,578.60
2012,10,03,14,25,578.00
2012,10,03,14,26,577.40
2012,10,03,14,27,575.00
2012,10,03,14,28,575.00
2012,10,03,14,29,573.80
2012,10,03,14,30,571.50
2012,10,03,14,31,570.20
2012,10,03,14,32,570.00
2012,10,03,14,33,569.40
2012,10,03,14,34,567.10
2012,10,03,14,35,566.00
2012,10,03,14,36,564.50
2012,10,03,14,37,563.90
2012,10,03,14,38,562.60
2012,10,03,14,39,561.00
2012,10,03,14,40,561.00
2012,10,03,14,41,559.80
2012,10,03,14,42,559.00
2012,10,03,14,43,556.90
2012,10,03,14,44,555.00
2012,10,03,14,45,555.00
2012,10,03,14,46,554.50
2012,10,03,14,47,552.60
2012,10,03,14,48,550.30
2012,10,03,14,49,548.10
2012,10,03,14,50,547.80
2012,10,03,14,51,546.30
2012,10,03,14,52,545.00
2012,10,03,14,53,542.40
2012,10,03,14,54,541.00
2012,10,03,14,55,539.70
2012,10,03,14,56,537.50
2012,10,03,14,57,536.00
2012,10,03,14,58,534.90
2012,10,03,14,59,533.30
2012,10,03,15,00,531.30
2012,10,03,15,01,530.70
2012,10,03,15,02,528.40
2012,10,03,15,03,526.50
2012,10,03,15,04,524.80
2012,10,03,15,05,522.50
2012,10,03,15,06,520.30
2012,10,03,15,07,519.80
2012,10,03,15,08,519.00
2012,10,03,15,09,517.20
2012,10,03,15,10,515.00
2012,10,03,15,11,512.90
2012,10,03,15,12,512.00
2012,10,03,15,13,511.40
2012,10,03,15,14,508.00
2012,10,03,15,15,507.10
2012,10,03,15,16,506.00
2012,10,03,15,17,504.40
2012,10,03,15,18,503.00
2012,10,03,15,19,502.00
2012,10,03,15,20,498.30
2012,10,03,15,21,497.00
2012,10,03,15,22,496.40
2012,10,03,15,23,494.40
2012,10,03,15,24,492.00
2012,10,03,15,25,489.80
2012,10,03,15,26,488.20
2012,10,03,15,27,486.00
2012,10,03,15,28,485.00
2012,10,03,15,29,485.00
2012,10,03,15,30,482.00
2012,10,03,15,31,479.50
2012,10,03,15,32,477.20
2012,10,03,15,33,475.50
2012,10,03,15,34,473.70
2012,10,03,15,35,471.30
2012,10,03,15,36,470.80
2012,10,03,15,37,468.80
2012,10,03,15,38,468.00
2012,10,03,15,39,468.00
2012,10,03,15,40,463.80
2012,10,03,15,41,461.20
2012,10,03,15,42,458.80
2012,10,03,15,43,456.40
2012,10,03,15,44,454.50
2012,10,03,15,45,454.00
2012,10,03,15,46,454.00
2012,10,03,15,47,448.50
2012,10,03,15,48,445.80
2012,10,03,15,49,444.40
2012,10,03,15,50,442.10
2012,10,03,15,51,439.80
2012,10,03,15,52,439.00
2012,10,03,15,53,436.20
2012,10,03,15,54,433.60
2012,10,03,15,55,431.60
2012,10,03,15,56,430.10
2012,10,03,15,57,427.70
2012,10,03,15,58,425.50
2012,10,03,15,59,422.30
2012,10,03,16,00,421.50
2012,10,03,16,01,419.30
2012,10,03,16,02,417.50
2012,10,03,16,03,415.70
2012,10,03,16,04,413.40
2012,10,03,16,05,411.10
2012,10,03,16,06,409.50
2012,10,03,16,07,406.50
2012,10,03,16,08,404.00
2012,10,03,16,09,403.30
2012,10,03,16,10,401.40
2012,10,03,16,11,398.80
2012,10,03,16,12,396.00
2012,10,03,16,13,395.20
2012,10,03,16,14,391.80
2012,10,03,16,15,388.60
2012,10,03,16,16,387.10
2012,10,03,16,17,384.60
2012,10,03,16,18,380.80
2012,10,03,16,19,379.10
2012,10,03,16,20,376.80
2012,10,03,16,21,374.60
2012,10,03,16,22,374.00
2012,10,03,16,23,373.20
2012,10,03,16,24,368.40
2012,10,03,16,25,365.70
2012,10,03,16,26,362.90
2012,10,03,16,27,360.50
2012,10,03,16,28,359.10
2012,10,03,16,29,358.20
2012,10,03,16,30,354.40
2012,10,03,16,31,351.60
2012,10,03,16,32,350.00
2012,10,03,16,33,347.00
2012,10,03,16,34,345.00
2012,10,03,16,35,342.60
2012,10,03,16,36,340.00
2012,10,03,16,37,337.10
2012,10,03,16,38,334.80
2012,10,03,16,39,332.50
2012,10,03,16,40,329.80
2012,10,03,16,41,327.00
2012,10,03,16,42,325.60
2012,10,03,16,43,323.00
2012,10,03,16,44,321.00
2012,10,03,16,45,318.40
2012,10,03,16,46,315.80
2012,10,03,16,47,312.60
2012,10,03,16,48,310.20
2012,10,03,16,49,308.50
2012,10,03,16,50,306.70
2012,10,03,16,51,302.80
2012,10,03,16,52,300.80
2012,10,03,16,53,298.50
2012,10,03,16,54,295.80
2012,10,03,16,55,294.00
2012,10,03,16,56,294.00
2012,10,03,16,57,289.20
2012,10,03,16,58,286.60
2012,10,03,16,59,282.50
2012,10,03,17,00,280.10
2012,10,03,17,01,278.40
2012,10,03,17,02,276.60
2012,10,03,17,03,274.30
2012,10,03,17,04,270.70
2012,10,03,17,05,269.00
2012,10,03,17,06,269.00
2012,10,03,17,07,265.00
2012,10,03,17,08,260.50
2012,10,03,17,09,258.30
2012,10,03,17,10,256.20
2012,10,03,17,11,252.30
2012,10,03,17,12,250.60
2012,10,03,17,13,248.70
2012,10,03,17,14,245.00